Location: Archemont
(49.1579°N, 1.7598°E)
Time: 20:59:31
(UTC+00:00)

A-11 Canister half - All Passes

Search period start: 12 April 2024 00:00
Search period end: 22 April 2024 00:00
Orbit: 1526 x 1682 km, 47.3° (Epoch: 11 April)

Date Brightness Start Highest point End Pass type
(mag) Time Alt. Az. Time Alt. Az. Time Alt. Az.
12 Apr - 05:29:45 10° SSE 05:34:08 14° ESE 05:38:31 10° E daylight
12 Apr - 07:27:49 10° SSW 07:37:04 43° SE 07:46:21 10° ENE daylight
12 Apr - 09:31:19 10° WSW 09:41:27 75° SSE 09:51:30 10° E daylight
12 Apr - 11:36:20 10° W 11:46:30 78° S 11:56:28 10° ESE daylight
12 Apr - 13:41:31 10° WNW 13:51:02 49° SSW 14:00:18 10° SE daylight
12 Apr - 15:48:18 10° W 15:54:10 18° SW 15:59:58 10° SSW daylight
13 Apr - 05:08:44 10° SE 05:12:29 13° ESE 05:16:14 10° E daylight
13 Apr - 07:06:12 10° SSW 07:15:21 41° SE 07:24:33 10° ENE daylight
13 Apr - 09:09:33 10° WSW 09:19:40 74° SSE 09:29:44 10° E daylight
13 Apr - 11:14:32 10° W 11:24:44 79° S 11:34:43 10° ESE daylight
13 Apr - 13:19:43 10° WNW 13:29:18 51° SSW 13:38:39 10° SE daylight
13 Apr - 15:26:17 10° W 15:32:31 19° SW 15:38:39 10° SSW daylight
14 Apr - 04:47:54 10° SE 04:50:51 12° ESE 04:53:47 10° ESE daylight
14 Apr - 06:44:35 10° SSW 06:53:38 40° SE 07:02:44 10° ENE daylight
14 Apr - 08:47:47 10° WSW 08:57:54 73° SSE 09:07:57 10° E daylight
14 Apr - 10:52:45 10° W 11:02:56 80° S 11:12:58 10° ESE daylight
14 Apr - 12:57:54 10° WNW 13:07:34 52° SSW 13:17:00 10° SE daylight
14 Apr - 15:04:18 10° W 15:10:52 20° SW 15:17:19 10° S daylight
15 Apr - 04:27:28 10° SE 04:29:12 11° ESE 04:30:57 10° ESE visible
15 Apr - 06:22:59 10° SSW 06:31:56 38° SE 06:40:56 10° ENE daylight
15 Apr - 08:26:03 10° WSW 08:36:07 72° SSE 08:46:12 10° E daylight
15 Apr - 10:30:58 10° W 10:41:10 80° S 10:51:13 10° ESE daylight
15 Apr - 12:36:07 10° WNW 12:45:51 54° SSW 12:55:20 10° SE daylight
15 Apr - 14:42:21 10° W 14:49:12 21° SW 14:55:57 10° S daylight
16 Apr - 06:01:24 10° SSW 06:10:13 36° SE 06:19:07 10° ENE daylight
16 Apr - 08:04:18 10° WSW 08:14:21 70° SSE 08:24:25 10° E daylight
16 Apr - 10:09:11 10° W 10:19:23 81° S 10:29:27 10° E daylight
16 Apr - 12:14:19 10° WNW 12:24:06 56° SSW 12:33:40 10° SE daylight
16 Apr - 14:20:25 10° W 14:27:32 23° SW 14:34:33 10° S daylight
17 Apr - 05:39:49 10° SSW 05:48:31 35° SE 05:57:17 10° ENE daylight
17 Apr - 07:42:34 10° WSW 07:52:35 69° SSE 08:02:38 10° E daylight
17 Apr - 09:47:23 10° W 09:57:36 81° S 10:07:41 10° E daylight
17 Apr - 11:52:31 10° WNW 12:02:22 57° SSW 12:12:00 10° SE daylight
17 Apr - 13:58:30 10° W 14:05:52 24° SW 14:13:08 10° S daylight
18 Apr - 05:18:16 10° SSW 05:26:49 33° SE 05:35:28 10° ENE daylight
18 Apr - 07:20:50 10° WSW 07:30:49 68° SSE 07:40:52 10° E daylight
18 Apr - 09:25:37 10° W 09:35:48 81° S 09:45:56 10° E daylight
18 Apr - 11:30:44 10° WNW 11:40:37 59° SSW 11:50:19 10° SE daylight
18 Apr - 13:36:36 10° W 13:44:12 25° SW 13:51:41 10° S daylight
19 Apr - 04:56:43 10° SSW 05:05:07 32° SE 05:13:38 10° ENE daylight
19 Apr - 06:59:06 10° WSW 07:09:03 66° SSE 07:19:04 10° E daylight
19 Apr - 09:03:49 10° W 09:14:01 82° S 09:24:09 10° E daylight
19 Apr - 11:08:57 10° WNW 11:18:52 60° SSW 11:28:37 10° SE daylight
19 Apr - 13:14:43 10° W 13:22:31 27° SW 13:30:14 10° S daylight
20 Apr - 04:35:11 10° SSW 04:43:25 31° SE 04:51:46 10° E daylight
20 Apr - 06:37:23 10° SW 06:47:17 65° SSE 06:57:18 10° E daylight
20 Apr - 08:42:03 10° W 08:52:14 82° S 09:02:23 10° E daylight
20 Apr - 10:47:09 10° WNW 10:57:07 62° SSW 11:06:55 10° SE daylight
20 Apr - 12:52:50 10° W 13:00:51 28° SW 13:08:45 10° S daylight
21 Apr - 04:13:39 10° S 04:21:43 29° SE 04:29:55 10° E visible
21 Apr - 06:15:41 10° SW 06:25:31 63° SSE 06:35:31 10° ENE daylight
21 Apr - 08:20:16 10° W 08:30:26 82° S 08:40:37 10° E daylight
21 Apr - 10:25:22 10° WNW 10:35:21 64° SSW 10:45:13 10° SE daylight
21 Apr - 12:30:58 10° W 12:39:10 29° SW 12:47:14 10° S daylight
